Theta_e
351 351 351 351 349 348 350 350 350 349 349 350 351 352 352 351 349 349 350 350 349 350 350 350 350 350 349 346 340 340 342 343 345 347 347 347 348 348 349 346 344 342 341 343 345 346 348 348 347 347 347 345 344 344 344 345 345 346 345 344 343 343 343 344 343 343 343 343 343 343 343 342 340 340 340 340 339 339 338 338 339 339 341 342 342
351 350 351 351 350 350 350 351 351 350 350 351 352 352 352 351 350 350 350 350 349 350 349 347 347 347 347 346 343 341 342 343 343 345 346 346 346 347 349 345 342 341 339 340 343 346 347 349 349 348 348 347 345 344 344 344 345 346 346 345 344 342 342 343 343 343 342 342 343 343 343 342 341 341 341 340 340 339 338 338 338 339 340 341 341
352 350 351 351 351 351 351 352 352 351 350 351 351 351 350 350 350 350 350 349 348 347 345 343 343 343 342 344 345 344 343 343 342 342 344 346 346 346 347 345 341 341 339 337 340 344 346 348 350 350 349 347 346 346 344 343 344 346 346 346 346 345 343 342 342 342 342 342 342 342 342 342 342 342 341 341 340 339 339 339 339 338 339 340 340
351 350 351 351 351 351 352 352 352 351 350 350 351 351 351 350 349 350 349 347 345 345 345 343 340 340 340 341 344 344 342 342 342 342 343 345 346 346 346 344 342 340 339 338 336 340 345 348 349 350 350 348 347 347 346 344 344 345 346 346 346 347 345 343 343 342 342 341 341 341 341 341 342 341 340 340 339 339 339 338 338 339 338 339 339
351 350 350 350 351 352 352 352 352 351 350 350 351 351 351 350 349 350 348 345 344 343 342 340 338 339 340 339 341 342 342 343 343 342 343 344 345 346 345 344 342 340 340 339 336 336 340 346 348 349 349 349 349 347 346 345 343 343 344 345 345 347 346 346 345 344 344 342 341 340 340 340 340 340 340 339 339 339 339 339 338 338 338 338 338
351 351 350 350 351 352 353 352 353 352 351 352 351 351 351 350 349 349 346 343 342 340 338 338 338 340 340 340 339 339 342 342 342 343 342 343 343 344 345 344 343 343 341 340 338 336 338 343 347 348 349 349 349 348 347 345 345 343 343 344 345 346 346 346 346 345 345 344 342 341 340 340 340 339 339 339 339 339 339 339 338 338 338 338 338
353 353 351 351 351 352 353 353 354 353 352 352 351 351 350 350 349 347 343 341 341 341 340 340 341 341 341 341 341 340 341 342 343 343 343 343 343 344 345 345 345 345 344 342 340 338 339 344 347 348 348 348 348 348 347 346 346 345 344 344 345 345 345 345 345 345 345 345 344 343 342 342 341 340 339 338 338 338 338 339 338 338 338 338 338
352 353 352 352 352 353 354 354 355 355 353 352 351 351 350 350 348 345 343 342 342 343 341 341 342 341 339 341 343 342 342 343 343 343 343 343 344 344 345 345 345 345 345 344 342 339 339 343 347 347 348 348 349 348 347 347 347 346 346 345 344 343 343 344 345 345 345 346 345 344 343 343 343 342 341 340 340 339 339 339 339 338 338 338 338
351 352 353 352 352 354 354 355 355 355 353 351 351 351 350 349 347 344 343 342 341 342 341 341 341 339 339 341 343 342 341 343 344 343 343 343 344 344 344 345 345 343 344 345 343 341 339 342 345 346 347 347 347 348 348 348 348 347 346 345 345 344 343 344 344 344 345 345 345 344 344 344 344 343 343 343 342 341 341 340 340 339 339 338 338
353 353 353 353 353 353 354 355 355 354 353 351 351 350 348 348 347 344 343 341 339 341 342 340 339 338 339 342 343 341 341 342 343 343 343 344 344 345 345 344 344 342 342 344 344 343 341 341 344 345 346 345 345 346 347 347 347 347 346 346 346 346 345 344 344 344 344 344 344 344 343 343 344 344 344 344 344 343 343 342 342 341 340 340 339
355 355 354 353 352 353 355 356 355 355 354 351 349 348 347 348 347 344 343 341 339 340 341 340 337 336 336 337 338 338 339 341 343 343 343 344 344 344 345 344 342 341 341 342 343 343 342 342 342 343 343 343 344 344 345 346 346 347 346 346 346 346 345 345 344 344 344 345 345 345 344 344 344 343 343 344 344 344 344 344 344 344 343 342 342
356 356 354 352 352 353 355 356 356 356 352 349 348 347 347 346 345 343 341 340 341 341 340 338 335 335 335 333 334 335 338 340 341 343 342 343 344 343 345 344 343 342 342 343 343 343 343 343 343 343 343 343 344 344 345 346 346 347 347 347 347 346 346 345 345 345 345 345 345 345 345 344 344 343 343 344 344 344 345 344 344 344 344 343 344
355 356 354 352 352 354 356 356 357 354 349 347 347 347 346 344 344 342 338 339 342 339 337 335 333 336 337 335 336 337 339 340 339 341 342 343 343 342 343 343 342 343 342 343 344 344 344 344 343 344 344 344 345 346 346 346 346 346 346 346 347 346 346 346 346 345 345 345 345 345 345 345 345 344 344 344 344 344 345 344 344 344 344 343 344
355 356 355 353 353 355 355 356 357 351 347 347 347 346 344 343 343 339 338 340 339 337 334 331 333 338 339 339 342 341 339 340 340 339 340 342 342 341 342 342 341 341 341 342 343 343 343 344 344 344 344 344 345 346 346 347 347 345 344 345 346 346 346 347 347 346 346 346 345 345 345 345 345 345 345 345 345 345 345 345 345 345 345 344 344
355 356 355 354 353 353 354 357 355 347 345 346 345 343 340 340 341 337 338 342 339 337 336 331 334 339 341 343 345 345 341 338 339 339 341 343 341 340 341 341 341 341 341 341 341 341 340 342 343 343 343 344 344 345 345 345 345 345 344 344 344 345 346 346 346 346 346 346 346 345 345 346 346 346 346 346 346 346 346 345 346 346 346 345 345
355 356 356 354 354 353 354 357 351 343 346 346 343 342 337 337 340 336 338 341 339 338 338 335 333 335 341 345 343 347 347 339 336 339 341 342 340 340 340 339 341 342 340 341 339 335 335 339 340 340 341 343 343 344 344 344 344 344 343 343 343 343 344 345 345 345 345 345 345 345 345 345 346 346 345 345 345 345 345 345 345 346 346 345 346
356 356 356 355 355 355 356 356 348 342 345 344 342 341 336 336 339 339 339 340 337 337 339 338 335 333 339 345 344 348 350 342 338 338 338 339 338 336 337 338 340 341 340 338 333 328 329 333 334 333 334 336 338 340 341 340 340 339 336 335 335 335 337 339 340 340 339 339 340 340 341 342 343 343 344 344 344 344 344 344 345 345 345 346 346
357 357 356 356 355 356 356 354 347 344 344 343 342 339 336 338 340 341 341 338 336 337 338 338 337 336 338 341 341 345 346 342 344 342 336 334 334 332 334 337 339 339 339 335 330 328 329 329 328 326 327 327 329 331 330 329 328 325 322 322 321 321 322 324 326 327 327 327 328 329 330 331 332 333 334 336 337 338 339 339 341 342 343 344 345
357 358 358 357 357 357 355 349 345 346 344 342 342 338 336 340 341 340 339 335 335 337 339 339 338 337 338 338 336 338 339 339 344 346 341 336 333 331 332 334 337 337 337 333 330 330 330 329 328 326 326 327 328 328 326 325 324 320 318 318 317 317 317 317 317 318 318 318 319 319 320 320 321 321 322 323 324 326 326 327 330 332 335 337 339
357 358 359 357 357 357 352 345 343 347 345 342 341 338 337 341 341 339 336 333 335 338 339 339 339 338 338 337 334 336 336 335 338 342 345 346 340 335 331 330 334 335 335 332 330 330 328 329 329 328 327 329 329 329 328 328 327 325 325 323 320 321 320 318 317 318 317 317 317 317 317 317 317 317 317 318 318 318 318 319 320 321 323 325 328
357 359 359 358 358 355 349 344 344 346 344 341 341 339 338 340 341 339 337 333 333 338 339 338 339 339 338 337 336 337 337 336 335 336 341 346 344 340 335 330 332 334 333 332 331 329 326 327 329 328 329 330 330 330 329 328 328 328 328 326 325 325 325 323 322 322 321 321 320 320 318 317 317 317 317 317 317 317 317 317 317 317 317 318 319
358 359 359 358 357 352 347 345 346 345 343 340 341 341 337 338 339 338 338 335 332 337 339 338 339 339 338 338 337 337 336 335 336 335 334 336 339 339 334 332 333 332 331 332 331 329 326 327 328 329 329 330 330 330 329 329 329 328 329 328 328 328 327 326 326 326 326 325 326 325 322 319 318 318 317 317 317 317 317 317 317 317 317 317 317
359 360 359 358 356 351 347 348 347 346 343 341 342 340 335 337 339 337 337 335 332 335 338 338 339 339 337 338 337 336 336 335 336 337 335 335 340 339 334 333 333 330 329 331 330 328 328 329 329 329 329 329 330 330 329 329 329 329 329 329 329 328 327 327 328 328 327 327 328 328 325 321 319 319 319 319 320 320 319 319 318 317 317 317 317
360 361 359 357 355 350 348 349 349 346 344 342 341 338 334 337 339 337 336 335 332 334 337 338 338 339 338 336 335 335 335 335 336 336 336 336 337 336 333 334 335 332 330 330 329 329 330 331 330 330 329 329 330 330 329 329 329 329 329 329 329 328 327 328 328 328 328 328 329 329 328 324 321 321 321 323 324 325 324 323 321 320 318 318 318
361 360 358 356 354 350 348 349 349 347 345 345 342 336 335 338 339 338 338 335 332 333 336 338 337 336 335 332 333 335 335 336 336 335 335 334 333 333 335 336 335 334 332 331 331 332 332 332 332 331 331 330 330 329 329 329 329 329 329 329 329 328 328 328 328 328 328 329 329 330 330 329 328 327 327 327 328 329 329 327 326 324 322 320 319
360 358 356 355 353 351 348 348 349 347 346 345 339 334 336 339 339 339 337 333 332 334 334 337 336 334 331 331 334 336 335 336 336 334 334 334 333 333 336 337 335 334 334 334 334 334 333 333 333 333 332 332 331 330 330 329 329 329 329 329 329 329 329 329 329 329 329 330 330 330 330 331 331 331 331 331 330 330 330 329 328 327 325 324 322
357 355 354 354 353 352 349 348 348 347 346 344 338 335 337 340 339 337 334 331 333 337 336 336 336 335 333 334 336 337 335 334 334 335 334 334 333 333 336 338 337 336 335 334 335 334 333 333 333 333 332 332 332 331 331 330 329 330 329 329 329 330 330 330 330 330 330 330 330 330 330 331 332 331 331 331 331 331 331 330 329 328 327 326 324
355 354 354 353 353 352 350 347 347 347 346 342 337 337 338 340 339 336 334 333 334 337 339 337 337 337 336 336 337 337 336 335 334 335 333 333 334 334 334 336 338 340 341 340 338 334 333 334 333 333 332 331 332 332 331 331 330 329 329 329 330 330 330 330 330 330 331 330 331 331 331 331 331 331 330 330 331 331 331 331 331 330 329 326 323
355 353 354 354 352 352 350 348 347 346 346 342 338 337 338 339 339 337 337 337 336 337 340 339 337 337 337 337 338 337 336 335 335 335 335 333 334 334 335 334 334 339 344 349 345 336 333 335 333 332 332 332 333 333 331 331 330 330 330 330 331 331 331 331 331 331 331 331 331 331 332 331 331 331 331 331 332 332 332 331 331 331 330 327 323
354 353 353 353 352 352 350 349 347 345 346 344 340 338 339 339 339 337 337 339 339 338 339 339 337 335 336 337 337 336 336 335 334 335 336 335 334 334 334 333 333 334 336 343 345 337 332 334 332 332 333 333 335 335 333 332 331 330 331 331 331 331 331 331 331 331 331 331 331 331 331 331 332 332 331 331 332 332 332 332 331 330 329 328 326
353 353 353 353 352 352 350 350 348 345 346 346 342 339 339 339 339 338 338 339 339 337 338 339 337 336 336 337 336 336 336 335 333 333 334 334 334 334 334 333 333 334 332 336 341 338 333 333 333 333 334 334 335 335 335 334 333 333 333 333 333 333 332 332 332 332 331 331 331 331 331 331 331 332 331 331 332 332 332 332 332 331 330 329 328
353 352 352 352 352 352 351 350 349 346 346 347 343 340 339 338 338 338 339 340 338 337 338 339 339 338 337 336 336 336 335 335 334 335 335 335 335 335 335 335 334 335 334 335 337 336 333 333 334 333 333 334 334 333 333 333 332 332 333 333 334 334 333 333 332 332 332 332 332 332 332 332 331 331 331 332 332 332 332 331 331 331 331 330 329
353 352 352 352 352 351 351 350 349 347 347 347 343 340 338 337 338 338 339 340 338 337 338 339 339 339 337 336 337 336 335 336 335 336 336 336 336 336 336 336 335 336 336 336 336 335 334 334 334 334 334 334 334 333 332 331 330 330 331 331 333 333 333 333 333 333 333 333 333 332 332 332 332 332 332 332 332 332 331 331 331 330 330 329 328
353 353 353 353 352 352 351 351 350 348 348 346 343 340 338 337 338 339 340 340 339 338 339 339 339 338 337 337 337 336 336 337 336 337 337 337 336 336 336 336 336 336 337 337 336 336 336 335 334 334 335 335 334 333 331 331 331 330 330 330 330 331 332 332 332 333 333 334 334 333 333 333 333 332 332 332 332 332 331 330 330 330 329 329 328
354 353 353 353 353 352 351 351 350 348 346 344 342 341 339 338 338 339 340 340 339 339 339 339 339 338 338 337 336 336 337 337 337 337 337 336 336 336 335 335 336 336 336 337 337 337 337 336 335 335 335 335 335 333 332 332 332 332 331 329 328 329 329 329 330 330 331 332 333 333 332 332 332 332 332 332 332 331 330 330 329 329 329 329 329
354 354 353 353 353 353 352 351 350 347 345 344 342 342 342 340 338 338 339 340 340 340 339 338 339 339 339 338 336 336 336 337 337 338 337 337 336 336 335 336 337 337 336 336 337 337 337 336 335 335 335 335 335 334 333 333 333 332 331 330 329 328 328 328 329 329 330 330 331 331 331 331 330 330 330 330 331 330 330 329 329 329 329 329 329
355 355 354 354 353 353 352 351 349 348 345 344 343 342 343 342 339 337 338 340 340 340 339 338 339 339 338 338 337 336 336 337 337 338 338 337 337 336 336 336 337 337 337 337 336 336 336 336 336 335 335 335 334 334 334 334 334 333 331 330 330 330 329 329 330 329 330 329 330 330 330 330 329 329 329 329 329 329 329 329 329 329 329 329 328
356 355 355 354 353 352 352 351 350 348 346 345 344 344 343 342 340 338 339 340 340 341 340 339 338 338 338 338 337 336 337 336 336 337 338 338 337 336 336 336 337 337 337 337 336 335 335 335 335 335 335 335 334 334 334 334 334 333 331 331 330 329 330 330 330 330 330 329 329 329 329 328 328 328 328 328 328 328 328 327 327 327 327 326 327
357 356 355 355 354 353 352 351 350 348 347 346 345 344 343 342 341 340 340 341 341 341 341 340 339 339 338 338 338 337 337 336 336 337 338 337 337 336 337 337 337 337 337 337 336 335 335 335 336 336 335 335 335 334 334 333 333 332 331 331 330 329 330 330 330 330 330 329 328 328 328 328 327 327 327 326 326 326 326 326 326 326 326 325 326
357 356 356 355 354 353 352 351 350 348 347 346 345 344 343 342 342 341 340 341 341 341 341 341 340 340 339 338 338 338 337 336 337 338 338 338 337 337 338 338 338 337 337 336 336 336 336 336 336 336 335 335 334 333 333 332 332 331 330 330 331 330 330 330 330 330 329 329 328 328 327 326 325 324 324 325 325 324 325 325 326 325 326 325 325
357 357 356 355 354 353 352 351 349 348 347 346 345 344 343 343 342 341 341 341 341 341 341 341 341 340 340 339 338 338 337 335 336 339 339 337 337 337 338 338 338 338 337 337 337 336 336 336 336 336 335 334 333 332 332 332 331 329 329 329 330 330 329 329 329 329 328 328 328 327 326 325 324 323 323 323 322 321 321 321 320 321 321 321 321
357 357 356 356 355 354 353 351 350 348 347 346 345 345 344 344 343 342 342 341 341 341 341 341 341 341 341 340 339 338 337 334 335 338 339 338 338 338 337 338 337 337 336 336 336 336 336 336 336 335 334 333 332 332 332 331 330 329 329 329 329 329 329 329 329 327 327 327 327 327 325 323 323 323 321 320 319 318 318 318 318 319 319 319 320
358 357 357 356 356 355 354 353 351 350 348 347 346 345 345 345 344 343 342 342 342 341 341 342 341 341 341 341 340 339 336 333 334 338 339 339 339 338 337 338 336 335 335 336 336 335 335 335 335 334 333 332 333 333 332 331 329 329 328 329 329 329 329 329 328 327 326 326 327 326 324 320 319 320 319 318 319 318 318 319 319 319 319 320 321
358 358 357 357 356 355 354 354 353 351 350 348 347 346 346 346 345 344 343 343 342 342 341 341 341 341 341 340 340 339 336 333 335 338 340 339 339 338 338 338 336 334 335 336 336 335 335 335 335 334 333 333 333 333 331 330 329 328 329 329 329 329 329 328 327 327 326 325 325 324 322 318 318 320 319 319 320 320 319 319 319 320 320 321 321
358 358 358 357 357 356 355 354 353 352 351 350 348 347 348 348 346 344 343 343 342 342 341 341 341 341 340 340 340 339 338 337 337 339 339 338 338 338 337 336 334 335 336 336 336 336 335 335 334 334 333 333 332 331 329 329 329 329 329 330 329 329 329 328 327 327 325 323 322 322 321 319 319 320 321 321 321 320 320 319 319 319 318 318 319
359 359 359 358 358 357 356 355 354 353 352 350 349 349 349 349 347 345 344 343 342 342 341 341 341 341 341 340 339 338 338 339 339 339 339 338 337 336 333 331 333 336 337 337 337 335 334 333 333 333 333 331 330 329 328 328 329 330 330 330 330 329 329 327 326 324 322 321 321 322 321 321 321 321 321 321 320 319 318 318 317 316 315 315 314
359 359 359 359 358 357 357 356 355 353 352 351 350 350 350 350 348 346 344 343 342 342 341 341 341 341 340 339 338 337 337 338 338 338 338 338 337 333 330 332 335 337 337 337 335 333 333 333 331 331 331 330 329 328 328 328 329 330 330 330 329 329 327 325 323 322 321 321 321 321 321 321 321 321 321 320 318 316 316 316 315 314 313 312 311
359 360 360 359 359 358 357 356 355 354 353 351 351 351 351 350 348 346 344 342 342 341 341 340 340 340 339 339 337 336 336 337 337 336 337 337 336 333 334 336 337 336 336 336 335 334 334 333 330 329 330 329 328 327 328 328 329 329 328 327 326 325 324 322 321 322 322 322 321 321 321 321 321 320 318 316 314 313 314 314 313 311 310 310 311
360 360 360 360 360 359 358 357 355 354 353 352 352 352 352 351 348 345 343 342 342 341 341 340 340 340 339 338 337 336 336 336 337 337 338 337 335 335 336 338 338 337 337 337 335 334 334 332 329 329 329 328 328 327 327 327 327 327 325 324 324 323 322 321 321 321 322 322 322 321 320 319 319 316 314 313 312 312 312 311 310 310 310 312 314
361 361 361 360 360 360 359 358 357 355 354 353 353 353 352 351 348 345 343 342 342 341 340 340 339 339 338 337 336 336 336 337 338 336 334 335 334 334 335 337 338 339 340 338 335 332 331 330 329 329 329 328 327 327 326 325 325 324 324 323 324 324 323 322 321 321 322 322 322 321 318 316 314 313 312 312 312 312 312 312 311 312 313 314 315
362 362 361 360 360 360 359 358 357 356 355 354 353 352 351 350 348 345 343 342 341 340 340 339 339 338 338 337 337 337 337 338 335 330 329 331 332 332 334 336 337 338 339 337 333 331 331 330 329 329 329 328 326 325 323 322 321 322 323 323 323 322 322 322 321 321 322 321 319 317 315 313 312 312 312 313 313 313 312 312 312 313 313 314 315
Wind_Speed
13 13 13 13 13 12 10 9 7 6 5 4 4 3 3 3 3 3 4 5 4 4 5 4 3 3 3 4 1 2 5 5 6 7 6 6 6 7 7 6 5 5 6 9 11 14 15 16 15 15 14 14 15 14 15 15 14 14 14 13 13 13 13 13 12 12 12 12 12 12 11 11 11 10 10 9 9 9 8 8 8 8 7 7 7
14 14 14 14 14 12 10 8 7 7 6 5 5 4 4 5 4 4 5 5 4 4 4 3 3 4 5 6 5 5 6 7 8 10 10 8 7 8 7 6 5 4 5 8 10 12 14 15 16 16 15 15 15 15 15 16 15 14 14 13 14 14 13 13 13 12 12 12 12 12 12 12 11 11 10 10 10 9 9 9 9 8 8 8 7
15 15 15 15 15 13 10 9 7 6 6 6 6 6 6 6 5 5 4 2 3 4 3 2 1 1 2 5 8 8 5 3 3 7 12 12 9 8 7 6 6 5 4 6 9 11 12 14 15 15 16 15 16 16 16 16 15 15 14 14 14 14 13 13 13 12 12 12 12 12 12 12 12 11 11 11 10 10 10 10 9 9 9 8 7
16 15 16 16 15 13 10 9 8 6 6 7 7 7 8 6 5 4 3 3 3 3 3 2 0 3 4 4 4 3 4 5 6 4 6 11 11 8 6 7 7 5 4 4 7 10 11 12 13 14 15 16 16 16 16 16 15 15 15 14 14 13 13 13 13 12 12 12 11 11 11 11 12 12 12 11 11 11 11 10 10 10 9 9 9
16 15 16 16 14 13 11 9 8 7 7 8 8 9 8 6 5 4 3 3 2 2 4 4 2 4 5 4 3 4 4 4 6 6 5 7 9 8 7 8 7 5 5 4 5 8 10 11 12 13 15 15 16 15 15 16 16 16 15 14 14 13 13 13 12 12 12 12 12 12 11 11 11 12 12 12 12 11 11 11 11 11 10 10 10
16 15 15 15 14 13 11 10 9 8 8 9 9 9 8 6 5 5 3 2 1 2 3 3 3 4 3 2 2 3 3 1 4 6 7 8 9 9 8 8 7 5 5 4 4 7 9 10 11 12 13 14 14 14 15 16 16 16 16 15 13 12 13 13 13 13 12 13 12 12 12 12 12 12 12 12 12 12 12 12 12 12 12 11 11
17 16 15 14 14 13 11 10 10 9 9 9 9 9 8 6 6 6 4 2 1 1 1 3 6 5 1 2 1 1 3 4 5 6 6 7 8 9 8 7 6 4 4 4 3 5 7 8 9 10 10 11 12 14 15 15 14 15 16 15 14 14 14 14 15 15 15 14 13 14 14 14 14 13 13 13 13 13 13 13 13 13 13 12 12
19 17 15 15 15 13 11 11 11 10 9 9 8 8 7 7 7 6 5 3 2 3 4 5 6 5 2 1 4 4 5 6 6 5 4 4 6 8 6 5 5 3 4 5 3 4 5 7 8 8 9 10 10 12 13 12 12 13 15 17 17 17 16 15 16 16 15 15 14 15 15 15 15 15 14 14 14 14 14 14 14 14 13 13 13
19 18 16 16 15 13 12 12 11 9 8 8 8 7 7 7 7 6 5 4 3 3 3 2 4 3 3 4 6 4 4 5 4 5 5 5 5 5 5 5 4 3 3 4 4 4 4 6 7 7 8 8 9 9 10 10 10 11 13 16 17 17 16 15 16 16 15 15 15 16 16 16 16 16 15 15 15 15 16 16 15 15 14 14 14
20 19 16 16 15 14 14 13 12 9 8 8 7 8 8 7 7 6 5 3 3 2 2 0 2 2 3 5 5 2 2 3 4 5 4 5 4 4 6 6 5 4 4 5 5 4 4 5 7 7 7 7 8 8 9 9 9 10 12 14 15 16 16 16 16 16 15 15 16 17 17 17 17 17 16 15 16 16 16 16 16 16 16 15 15
20 18 16 15 16 16 14 13 12 10 9 8 8 10 9 8 8 7 5 5 4 3 1 1 2 2 2 4 5 4 2 3 6 5 4 5 5 5 8 7 5 6 7 7 7 6 4 6 6 7 7 7 7 7 7 8 8 8 10 11 13 15 15 16 16 15 14 14 16 17 18 18 18 18 18 18 17 16 16 17 17 17 17 16 16
19 18 17 16 17 17 15 13 12 10 9 9 11 11 9 10 10 7 6 6 5 4 2 3 3 3 3 4 6 5 3 4 7 5 5 7 6 7 8 7 7 8 7 8 8 7 5 6 6 5 6 6 6 6 6 7 7 6 8 10 11 12 14 15 15 15 14 14 14 15 17 18 18 18 18 18 18 17 17 17 18 18 18 18 17
18 18 17 17 17 17 16 14 12 10 10 11 11 11 10 10 9 7 5 6 5 4 3 3 2 1 2 4 4 5 5 5 7 6 6 9 8 9 10 8 8 9 8 9 8 7 6 6 5 4 5 6 6 6 5 6 6 5 6 8 9 10 12 12 13 13 14 14 14 14 15 16 17 17 18 18 18 18 18 18 18 18 19 19 19
18 19 18 18 19 18 16 14 12 11 11 12 11 11 11 10 9 8 7 6 5 4 3 3 1 2 0 2 1 1 2 3 6 8 8 12 11 10 10 9 10 10 11 10 9 7 6 6 5 4 5 6 6 6 5 5 4 4 5 7 7 8 9 9 10 11 11 12 13 13 14 15 15 16 16 16 16 17 17 18 18 18 18 19 19
19 19 19 19 19 18 17 14 12 14 14 13 12 11 10 10 9 8 8 7 5 4 3 1 3 4 2 1 1 2 3 2 1 7 14 17 13 12 12 12 11 11 12 11 9 6 5 6 6 5 5 5 5 5 5 4 3 3 4 6 7 7 7 8 8 9 9 10 10 11 11 12 12 13 13 13 14 14 15 16 16 17 17 17 18
20 20 20 20 20 18 17 15 15 17 15 14 14 11 10 10 9 9 9 8 7 5 3 2 3 4 2 1 1 2 2 2 5 9 18 18 13 13 13 12 13 14 12 10 7 5 4 6 6 6 6 5 5 5 5 4 3 3 3 4 5 6 6 6 6 6 6 7 8 8 9 9 9 10 11 11 12 12 13 14 14 15 16 17 17
21 20 20 21 20 18 17 16 18 18 16 15 14 11 10 11 10 10 10 9 8 6 4 4 2 3 4 2 2 1 1 2 4 7 14 16 13 14 12 13 15 15 12 9 7 6 6 6 6 5 5 4 4 5 5 3 2 2 2 2 3 4 5 5 5 5 5 5 6 7 7 7 8 9 9 10 10 10 11 12 13 14 15 15 16
22 21 21 21 20 19 18 18 20 19 17 16 15 12 12 12 11 11 11 10 10 8 7 5 3 3 5 4 2 2 3 3 2 2 5 9 11 12 12 14 16 15 13 10 8 8 7 7 6 5 5 4 4 3 3 3 2 2 1 1 1 1 1 3 4 4 4 4 5 6 6 7 7 8 8 9 10 11 11 12 12 13 14 14 13
23 22 21 21 21 19 19 21 21 20 18 17 16 14 13 12 12 12 11 11 11 11 10 8 6 5 5 5 3 4 6 4 3 3 2 3 8 10 12 14 15 14 13 11 10 8 8 7 6 5 5 4 4 3 3 3 4 3 2 1 2 3 3 2 2 2 2 2 3 4 4 4 4 5 6 6 7 9 10 11 12 13 14 14 14
23 23 22 21 21 21 23 23 21 19 20 20 18 16 14 13 14 13 12 12 11 13 13 10 9 7 6 6 4 4 5 5 6 6 3 2 4 6 9 12 14 14 12 11 11 9 8 8 7 6 6 6 5 4 3 3 3 2 1 0 0 2 3 3 3 4 4 4 4 5 5 4 4 3 3 4 4 5 7 7 9 10 11 12 13
24 23 22 22 22 24 25 24 21 20 20 21 19 17 16 16 16 15 13 12 12 13 14 12 10 9 8 8 7 5 4 4 6 5 3 3 2 3 6 9 10 12 14 13 12 11 9 8 8 7 7 7 7 6 4 3 2 2 2 2 3 3 3 3 3 4 5 6 7 7 7 7 6 6 5 5 5 5 5 6 7 8 9 10 10
26 24 23 23 24 26 27 26 23 21 20 21 20 19 18 18 18 17 15 14 13 13 14 13 12 11 10 10 9 7 4 4 5 4 2 3 2 2 5 8 8 10 14 15 14 13 10 9 9 8 8 8 8 8 8 6 5 5 4 4 5 5 5 4 4 5 5 6 7 9 9 9 8 8 8 8 8 8 8 8 8 8 8 9 10
28 25 24 24 25 28 28 27 25 23 21 21 21 20 20 20 19 19 17 15 15 14 14 13 13 13 12 12 12 10 7 6 7 7 4 2 3 2 3 7 8 9 13 17 17 14 11 10 10 10 10 10 10 10 10 9 8 7 7 7 7 6 6 6 6 6 7 7 8 10 10 10 9 9 9 9 9 10 10 11 11 11 10 10 11
29 27 26 26 27 29 29 27 27 25 23 23 22 21 22 21 21 21 18 17 17 17 15 14 14 14 14 13 12 12 10 9 8 9 8 7 5 4 3 4 4 6 11 16 16 14 12 11 10 11 11 11 12 12 12 11 11 9 9 8 8 8 8 8 8 8 8 9 9 9 9 9 10 10 9 9 10 10 11 12 13 13 14 14 14
31 30 29 29 29 31 30 29 29 27 25 24 23 23 23 23 23 22 20 19 18 18 17 16 15 15 15 13 12 11 10 9 9 9 11 11 8 6 4 4 3 4 8 12 12 13 14 13 11 10 11 12 13 13 14 14 13 11 11 10 10 10 10 10 10 11 11 11 11 10 9 9 9 10 10 11 12 12 13 13 13 14 15 16 16
33 33 32 31 30 31 32 31 30 28 27 26 24 24 23 23 24 23 20 19 19 18 17 17 16 15 15 14 12 10 9 9 10 11 12 12 10 9 7 4 2 4 6 8 9 9 10 11 9 9 10 12 14 15 15 16 15 13 12 11 12 12 13 13 13 13 13 13 13 13 12 11 11 12 13 14 14 14 15 15 15 16 17 17 18
35 35 33 33 32 31 32 32 32 30 29 27 26 24 23 24 24 22 19 19 20 19 17 17 17 16 15 14 12 10 9 8 9 11 13 13 12 11 10 5 2 2 3 4 6 7 7 7 7 6 5 6 9 13 15 16 16 14 13 13 14 15 15 15 15 15 15 16 16 16 15 14 14 15 16 16 16 17 17 17 18 18 19 20 20
35 36 35 35 35 33 32 33 33 33 31 29 28 26 25 25 24 22 20 20 21 21 19 18 18 17 16 15 14 13 12 10 8 10 13 12 10 12 12 9 6 2 2 2 4 5 6 5 4 4 3 4 5 8 12 15 16 15 13 14 16 16 16 16 17 17 17 17 18 17 17 17 17 17 17 17 18 18 19 19 20 19 19 20 21
36 37 37 37 37 35 34 33 34 35 34 32 30 28 27 26 25 24 23 21 22 23 22 21 20 20 18 17 16 16 14 13 10 9 11 11 11 11 12 11 9 5 2 2 3 4 6 4 3 3 4 4 4 5 10 14 15 14 14 16 18 17 17 16 17 18 18 19 19 19 19 19 18 18 17 17 17 17 18 18 18 19 18 18 19
37 38 38 38 38 37 35 35 35 36 36 35 32 30 28 28 27 26 25 23 23 24 24 23 22 21 21 19 18 17 16 15 14 12 11 11 11 11 10 9 9 8 6 4 3 4 5 5 4 3 5 5 4 5 8 11 13 14 16 18 19 20 19 18 19 19 19 20 20 21 21 20 19 18 17 16 15 15 16 16 17 17 18 18 18
38 38 38 39 39 38 37 36 36 37 38 36 35 32 30 30 29 28 27 25 25 26 26 25 23 22 22 21 19 19 17 16 15 14 14 13 11 11 9 8 8 9 9 6 2 4 5 5 6 7 7 8 7 8 9 10 12 14 15 17 18 19 19 20 21 22 23 22 22 22 21 21 19 18 17 16 15 15 15 15 16 17 18 18 19
39 40 39 40 40 39 39 38 38 39 39 38 37 35 33 33 32 30 29 28 27 28 27 26 24 23 23 23 22 21 19 17 15 15 15 14 13 12 10 8 8 8 9 9 5 7 9 9 10 11 9 9 10 11 12 13 13 14 15 16 17 18 19 20 21 22 23 23 23 22 21 21 20 19 18 17 16 15 15 16 17 18 18 18 19
41 41 40 41 41 40 40 40 40 40 40 39 39 37 35 34 33 32 32 31 30 29 29 28 27 26 26 25 24 22 20 19 17 16 15 14 13 12 10 9 9 9 10 10 9 10 13 12 12 12 10 10 12 13 14 14 13 14 15 16 17 19 20 21 21 21 21 21 21 20 20 20 21 20 20 18 18 17 17 17 17 18 18 18 18
41 41 41 41 41 41 41 41 41 41 41 40 40 39 37 36 35 33 33 33 33 32 31 30 29 28 27 27 25 23 20 19 18 17 16 15 13 13 12 11 11 11 11 13 12 12 13 15 14 13 12 12 13 15 14 14 15 16 17 18 18 18 19 21 22 22 21 20 20 20 20 20 19 19 19 19 19 19 19 18 18 18 18 18 18
42 42 42 41 41 42 42 42 41 41 41 41 41 40 38 37 36 35 35 35 35 34 33 32 30 29 28 27 27 25 22 20 18 17 18 17 15 14 14 13 13 13 13 15 15 14 15 17 16 14 13 13 14 15 15 15 16 17 18 19 18 18 18 20 21 21 20 20 20 20 20 19 17 17 18 19 19 19 20 20 19 19 19 19 20
42 42 42 41 41 42 42 42 42 42 42 42 41 40 39 38 38 38 36 36 36 35 34 32 30 29 29 28 27 25 24 22 20 18 18 18 17 16 16 15 15 15 15 16 17 18 18 17 16 16 15 15 15 16 15 16 17 17 18 19 18 18 18 19 20 19 18 17 18 18 18 17 16 16 17 18 19 19 20 20 20 21 21 22 22
42 42 41 41 41 42 43 43 43 43 43 42 41 41 40 39 38 38 37 36 36 35 33 32 31 30 29 29 27 26 25 24 23 21 19 18 17 17 17 17 17 17 17 17 18 19 19 19 19 18 17 16 17 16 15 16 17 18 19 19 18 19 20 19 19 18 17 17 17 17 16 17 17 17 18 19 19 19 20 21 22 23 24 24 24
41 41 41 42 42 43 43 43 43 43 43 42 42 41 40 39 37 37 36 35 35 34 33 33 32 31 30 29 28 27 25 25 24 23 21 20 19 18 18 19 19 19 20 20 19 20 21 22 22 20 19 18 17 16 15 14 16 18 20 20 19 18 18 18 18 16 16 17 17 17 17 17 18 19 19 20 20 20 21 21 22 23 23 24 24
40 40 41 43 43 43 43 43 43 43 42 41 41 40 38 38 37 36 34 34 34 34 33 33 32 31 30 29 29 28 26 25 25 24 24 22 20 20 21 21 21 22 22 21 21 21 22 23 22 21 20 18 17 16 16 13 14 17 19 20 20 18 15 15 16 16 15 16 18 19 19 19 19 19 19 20 20 20 20 21 21 22 22 23 24
40 41 42 42 42 41 41 42 42 41 40 40 39 38 37 36 36 36 35 34 33 33 32 32 32 31 31 30 30 30 28 26 25 25 25 23 21 21 22 23 24 24 24 23 23 23 23 22 22 21 19 18 17 17 17 15 15 16 16 16 18 17 14 12 14 15 16 17 18 18 19 19 19 20 20 20 21 22 23 24 24 25 25 26 27
41 41 41 40 40 39 40 40 39 39 39 39 39 38 37 37 37 36 36 35 34 33 31 31 31 31 31 30 31 31 30 29 27 25 24 23 22 23 23 23 24 24 24 24 23 23 21 20 21 21 19 19 19 18 17 16 16 16 15 14 15 15 14 15 17 18 18 17 17 17 18 18 19 20 21 23 24 24 24 25 25 26 26 27 27
40 39 39 39 39 39 38 38 38 38 39 39 39 39 38 38 39 38 37 36 35 33 31 30 30 30 31 31 31 30 30 29 28 27 25 24 23 23 23 22 22 23 24 24 24 22 21 20 21 21 17 18 20 19 17 17 16 16 16 16 16 17 17 18 22 24 21 16 14 16 19 21 21 22 22 22 22 21 21 22 22 21 22 22 22
39 38 38 38 38 38 38 37 38 39 39 39 38 39 39 40 41 40 38 36 33 32 31 31 30 31 31 31 31 30 29 29 29 27 25 25 24 24 23 23 23 23 23 24 24 22 21 21 22 20 17 18 21 20 17 17 17 17 17 16 16 17 17 15 17 22 23 18 15 18 23 24 23 23 22 21 19 19 21 22 21 20 20 20 21
38 37 37 38 38 38 37 38 39 40 40 39 39 39 40 41 42 40 38 34 32 32 33 32 32 31 31 30 30 30 30 29 28 26 25 25 25 24 24 23 23 23 24 25 25 24 24 22 20 18 17 18 20 20 18 17 18 17 16 16 16 18 18 16 16 19 23 23 21 22 24 24 23 24 24 21 20 20 21 22 21 20 20 20 20
37 37 37 37 37 37 38 39 40 39 39 39 40 40 41 42 42 41 38 34 32 33 33 33 33 33 32 31 30 30 30 28 27 25 25 25 23 22 22 22 23 24 24 26 27 27 23 17 15 17 19 19 20 20 19 18 18 17 15 16 18 19 20 19 20 23 25 26 25 22 22 25 24 24 24 23 21 20 19 19 18 18 18 18 19
36 36 37 37 37 38 39 39 39 39 38 39 40 40 41 41 41 41 39 35 32 33 34 34 33 32 32 31 30 30 29 28 26 25 25 24 22 22 23 23 24 25 25 27 27 21 13 10 15 20 22 20 20 19 18 17 19 18 17 19 21 21 20 20 22 25 25 26 25 19 18 22 24 23 24 22 18 16 16 17 19 20 21 23 24
37 37 37 37 37 38 39 38 38 37 38 39 39 39 40 40 40 41 40 36 32 32 33 33 32 31 30 29 29 30 30 30 29 27 25 25 23 23 23 23 23 24 25 27 22 13 9 13 18 20 20 19 18 18 17 17 19 18 18 19 19 19 20 21 23 25 26 26 22 14 13 18 22 21 20 18 16 17 20 22 24 26 27 28 29
36 37 37 37 38 38 37 37 37 36 36 37 38 38 38 38 39 40 39 34 31 30 31 31 30 30 29 28 28 29 30 30 29 27 25 25 23 21 20 21 22 23 25 24 17 12 15 18 17 16 17 17 17 17 16 16 15 14 13 14 16 18 19 19 21 24 25 24 20 13 12 17 18 16 18 20 21 24 27 28 28 28 28 28 26
35 36 37 37 38 38 37 37 36 35 34 36 37 37 37 37 38 39 37 33 30 29 29 29 29 28 28 28 28 30 30 29 27 24 22 22 21 19 20 21 22 24 25 22 15 13 14 13 11 12 14 13 13 13 12 11 10 11 11 14 16 18 17 14 14 18 22 24 20 13 11 14 14 17 22 24 24 25 27 27 26 25 24 24 23
36 36 36 36 36 37 37 38 37 36 35 36 36 36 36 36 38 38 36 32 30 29 28 28 28 27 27 27 28 29 29 27 24 21 20 21 21 20 22 23 22 24 26 22 16 12 10 9 11 12 12 11 10 9 9 10 11 12 14 16 17 18 16 14 13 16 19 21 17 11 10 15 18 20 22 22 22 23 24 23 24 24 24 25 26
36 35 34 34 34 35 36 37 37 37 36 35 35 34 34 35 37 37 34 31 28 27 27 27 27 26 26 27 27 28 28 26 23 21 21 21 21 22 25 25 24 26 26 21 16 14 14 14 15 14 14 14 13 14 15 15 13 13 14 15 14 13 13 14 14 12 10 12 14 13 15 19 19 19 19 16 13 16 21 23 24 27 29 30 30
Wind_Direction
213 216 218 220 223 225 226 225 219 216 210 205 211 218 242 248 258 268 275 271 260 263 260 236 220 227 251 259 237 162 203 228 239 234 236 225 204 196 197 187 179 189 196 201 204 205 204 203 204 204 203 201 200 200 199 201 200 198 200 200 201 201 199 199 201 205 206 205 208 208 205 205 207 208 209 209 208 208 209 212 216 218 221 225 229
223 225 225 226 222 220 221 217 216 217 211 215 219 229 255 261 265 276 283 275 243 223 226 217 214 234 252 250 248 258 250 247 250 246 241 233 214 198 196 187 178 184 197 200 200 205 209 208 208 207 207 206 203 202 203 205 204 204 204 204 206 205 202 202 204 208 210 211 214 214 213 211 213 215 215 216 215 214 214 216 219 223 227 233 235
231 230 226 222 216 215 217 212 215 218 216 224 232 242 252 252 261 280 282 245 189 181 186 205 223 300 263 235 246 267 272 236 213 233 236 231 218 201 199 196 185 185 201 204 198 200 208 212 212 209 209 211 207 205 207 208 206 207 209 210 212 209 207 206 207 209 212 215 219 221 222 220 219 219 220 222 222 221 221 221 224 226 229 233 237
226 223 217 212 211 214 217 219 223 219 216 227 234 242 245 246 250 255 235 178 164 177 211 256 74 91 109 165 209 198 118 110 106 119 208 221 219 211 210 205 191 187 202 210 202 197 203 212 215 214 214 214 211 209 211 211 209 210 213 215 217 215 214 213 211 212 215 218 221 225 228 229 229 227 227 228 229 228 227 227 229 231 232 235 238
218 216 213 213 215 217 221 226 226 217 216 226 232 237 241 241 226 215 204 189 208 228 241 256 205 146 135 145 171 149 123 107 100 99 123 177 201 207 211 207 194 190 203 210 206 197 199 210 215 217 219 217 213 213 214 213 213 216 216 218 220 220 221 221 219 217 220 223 225 228 230 232 235 235 235 235 237 238 236 235 234 236 237 238 241
213 213 212 215 217 218 223 227 223 218 222 233 238 239 243 238 208 187 183 196 245 273 260 243 177 169 176 221 230 214 224 202 115 115 120 139 165 180 188 195 194 193 203 212 211 197 197 208 215 218 222 222 219 220 222 216 215 220 220 222 224 225 226 226 225 225 226 229 230 232 234 235 236 238 239 240 241 243 244 245 244 244 244 244 245
214 215 214 215 216 217 220 223 223 223 233 245 245 244 243 222 188 177 181 188 167 66 98 137 145 150 167 249 224 173 207 188 138 124 124 137 156 166 170 181 192 195 203 215 212 194 197 205 213 217 221 226 225 227 229 221 216 220 221 222 222 225 226 223 224 223 224 227 230 235 237 238 238 239 240 242 243 245 246 247 249 250 250 252 253
219 219 218 215 215 217 218 223 227 233 246 253 252 249 234 202 183 184 187 179 148 111 110 121 138 133 57 161 149 105 130 142 136 142 152 161 161 163 164 173 186 191 202 210 206 187 193 202 211 216 219 225 227 228 230 223 218 220 220 221 222 226 225 223 225 223 222 225 229 235 238 239 240 240 241 243 245 247 248 248 249 250 252 253 256
223 223 222 219 218 218 220 226 232 241 248 251 250 237 213 196 193 193 183 178 170 128 110 117 154 146 60 133 156 126 122 131 138 157 170 175 166 163 161 161 173 197 207 202 199 189 188 199 206 212 214 221 227 229 230 225 221 221 220 219 223 229 229 227 230 229 228 230 234 240 241 242 242 242 242 243 245 248 250 250 249 250 251 252 253
225 226 225 222 221 220 222 227 233 238 240 244 237 210 198 200 201 192 189 217 222 163 100 36 211 190 114 137 170 182 157 174 176 167 172 178 167 160 158 155 160 172 182 183 184 185 191 200 202 208 213 219 226 230 232 230 226 222 221 220 222 227 230 231 233 234 234 235 241 247 249 251 252 251 250 248 247 249 252 253 252 252 253 253 253
224 226 224 221 220 220 225 229 232 237 240 233 207 192 193 193 188 191 204 221 217 185 163 280 286 258 210 178 206 236 245 203 195 191 197 189 167 156 159 157 159 159 162 168 172 179 193 201 202 207 217 221 227 233 232 228 228 223 218 220 224 226 227 232 236 239 240 241 243 247 250 252 255 257 257 255 253 254 255 256 256 255 256 256 255
223 225 222 220 219 218 223 229 233 239 230 208 192 193 197 187 180 191 202 191 192 194 208 256 288 287 240 205 213 235 254 206 197 206 206 194 170 149 156 155 157 160 155 156 163 177 186 187 192 201 218 224 225 235 233 222 223 221 213 211 217 223 226 231 235 238 241 243 244 245 248 250 251 253 255 255 256 257 258 260 262 261 260 259 259
222 223 220 220 218 217 221 226 231 228 209 195 194 196 193 185 183 196 195 178 184 193 210 250 268 299 215 216 221 231 244 223 206 214 198 191 178 151 154 152 147 149 148 151 159 170 169 167 175 188 210 218 220 230 231 222 222 221 214 207 209 218 224 228 233 235 237 241 243 245 246 248 248 249 250 252 254 256 259 261 264 264 264 263 262
221 221 220 220 217 217 220 225 226 209 193 191 193 189 185 188 190 194 190 186 198 196 217 259 191 124 173 248 300 170 212 208 220 229 193 180 180 164 165 166 157 151 149 148 149 149 149 152 156 169 192 202 211 222 229 232 232 229 211 200 205 215 220 223 229 235 236 237 240 244 245 245 248 250 250 252 254 257 259 261 263 263 263 263 263
220 219 220 220 218 217 219 224 217 195 185 185 185 184 190 194 192 193 193 198 213 202 214 246 149 141 102 36 336 83 80 74 175 201 179 172 175 176 181 184 173 160 153 149 145 142 147 149 144 151 170 183 198 212 226 232 230 235 217 199 205 214 218 223 229 236 241 242 246 250 249 246 248 251 252 254 257 258 259 260 261 261 261 261 262
220 219 219 221 220 218 217 218 207 190 185 187 189 195 203 200 195 201 205 206 209 196 196 221 169 172 152 73 22 84 68 49 83 139 164 167 176 182 181 183 175 165 158 150 142 141 152 152 145 147 157 165 175 184 200 209 194 206 216 193 195 207 213 219 228 237 240 243 249 250 250 249 252 255 257 259 260 261 263 263 264 265 265 263 263
221 219 218 220 219 218 218 213 200 191 190 195 199 205 205 201 197 200 205 206 208 203 202 225 221 195 182 146 70 70 217 214 95 125 162 168 182 187 172 169 172 167 161 150 137 137 143 146 147 147 150 151 154 164 178 186 180 200 206 168 175 198 208 216 228 242 250 249 250 252 253 254 256 259 261 264 265 265 267 267 268 270 270 269 269
219 218 217 217 215 217 216 206 198 193 193 199 205 206 199 197 198 200 204 209 213 210 205 208 191 167 169 157 131 149 175 174 111 119 173 175 185 188 172 168 170 167 162 153 144 142 143 143 144 144 144 143 139 144 157 146 136 158 142 96 79 80 204 220 227 239 259 268 268 267 266 265 264 264 264 265 268 269 271 273 272 273 273 274 275
218 217 216 216 214 214 209 201 197 196 197 203 207 204 198 198 201 203 205 205 207 208 204 197 183 174 166 152 127 134 149 157 156 149 161 200 196 189 178 170 171 173 168 162 160 159 161 164 161 160 165 164 150 134 140 134 122 130 126 74 40 12 352 334 314 285 284 296 296 293 287 284 279 278 280 280 280 280 282 282 280 278 277 277 277
218 216 215 214 212 208 202 197 196 196 201 207 207 204 202 201 203 203 201 198 202 207 204 195 191 191 178 167 158 147 147 142 153 155 137 168 202 200 184 175 176 182 181 178 179 180 184 187 188 189 190 190 185 171 163 156 139 143 157 145 196 332 327 318 322 329 334 334 329 323 315 313 311 305 306 306 304 303 303 301 296 292 288 286 284
217 216 214 212 208 203 198 196 197 199 205 209 207 207 207 203 203 203 200 198 198 202 204 199 196 195 185 179 175 167 159 139 149 158 139 147 190 215 192 186 185 188 194 198 196 198 203 202 204 207 206 205 204 205 206 209 222 231 232 227 231 276 309 296 297 317 328 331 330 325 315 308 308 308 310 311 309 310 309 309 310 308 305 302 297
214 214 213 210 205 199 196 197 200 204 208 209 206 208 209 206 206 206 205 204 199 198 202 201 197 194 189 187 183 174 169 163 168 175 148 130 142 186 196 199 200 195 201 206 204 205 209 208 210 214 217 220 220 221 227 235 246 248 248 250 251 272 295 293 292 302 313 323 327 326 313 299 294 295 300 303 304 306 305 303 305 305 306 306 306
211 211 211 209 203 198 197 199 203 207 209 207 207 209 208 205 206 208 210 212 207 201 200 199 198 198 201 203 201 196 188 189 192 194 196 150 130 182 204 200 205 199 199 204 205 206 211 216 220 220 222 229 230 232 237 241 245 249 252 255 262 275 289 289 283 289 298 307 319 323 313 298 289 285 287 293 298 301 302 301 300 299 299 299 300
208 207 207 205 201 198 199 202 205 209 209 207 209 210 207 204 206 209 213 215 211 204 200 200 200 205 212 213 210 207 202 201 199 198 209 207 185 190 179 161 193 202 195 200 206 209 217 225 227 227 231 236 238 239 240 243 247 250 252 257 270 283 290 289 282 282 285 290 304 315 310 298 293 290 290 293 297 300 300 297 296 294 294 295 295
203 204 204 202 200 199 200 203 205 208 209 209 210 209 207 207 208 211 214 216 212 208 206 205 205 209 213 209 206 211 216 221 223 217 219 215 196 181 170 156 172 188 193 203 212 221 228 232 235 239 243 245 246 245 244 247 249 250 255 263 277 289 293 292 287 284 283 284 291 300 298 288 286 288 289 292 296 299 300 298 294 292 290 290 290
202 203 203 202 201 202 202 204 206 208 210 209 209 208 208 208 209 212 217 217 211 208 210 210 208 211 214 212 211 215 224 234 237 233 227 220 206 185 167 154 174 187 198 214 220 224 230 234 242 258 265 257 249 247 250 255 256 257 262 270 282 291 293 292 290 287 285 284 287 292 291 283 281 283 284 285 289 292 295 296 296 295 294 292 289
205 205 204 202 203 205 206 206 207 209 210 206 205 208 209 209 211 215 218 216 209 206 210 210 207 210 214 216 219 219 221 226 230 229 223 221 220 207 188 164 169 235 245 233 228 233 239 242 250 267 296 289 260 255 256 256 257 259 264 275 287 292 291 291 290 288 285 284 285 288 288 285 284 285 284 283 284 286 289 291 292 293 293 292 291
207 206 205 204 204 206 207 209 209 210 210 206 207 210 210 209 213 216 216 215 211 208 210 211 211 213 215 220 225 226 226 223 220 219 215 214 220 219 209 195 188 227 302 280 253 237 224 230 243 252 294 335 306 280 266 256 253 255 262 276 286 288 289 290 290 289 286 284 285 287 287 286 286 285 283 282 284 287 288 290 290 290 289 287 286
208 206 205 205 206 207 208 209 209 209 209 208 211 213 211 211 215 217 216 215 214 213 213 215 217 218 219 224 229 229 228 225 222 216 210 208 209 213 218 216 206 198 196 258 258 208 188 212 251 260 289 320 322 294 274 260 255 258 271 280 281 282 284 286 287 288 288 288 288 289 287 285 284 282 282 281 283 286 289 291 292 292 290 286 282
208 206 205 205 206 207 209 210 210 209 208 209 213 214 213 213 216 218 218 216 215 216 216 219 220 218 219 224 229 230 229 228 229 228 221 215 215 217 223 228 225 214 198 199 251 231 212 240 265 276 300 313 311 299 286 268 261 267 278 281 279 280 283 284 286 287 288 290 291 291 288 284 281 280 282 284 284 285 287 289 291 293 294 292 288
207 205 204 205 206 207 209 211 211 209 208 210 214 215 215 215 215 218 218 215 214 216 217 218 219 218 219 223 226 228 228 229 229 228 226 224 224 225 226 228 229 227 214 195 207 250 236 253 280 290 304 310 303 297 293 283 276 278 283 285 285 285 285 286 288 288 287 286 287 289 289 286 284 282 284 287 288 288 286 285 286 287 290 293 293
206 205 205 206 206 207 209 212 212 210 209 211 213 215 217 218 217 217 215 213 214 215 215 218 220 220 221 223 225 226 228 231 228 221 220 221 222 221 224 229 228 229 225 208 208 250 256 268 286 295 305 309 304 301 298 293 290 289 290 291 292 292 291 290 290 289 285 283 282 283 286 288 289 289 290 293 294 292 287 284 283 282 283 287 291
207 207 207 208 208 208 210 212 212 211 211 211 212 215 217 218 218 217 214 212 213 215 216 219 221 222 224 224 225 227 228 230 229 225 222 220 219 218 221 231 233 231 231 223 223 251 268 276 284 293 301 303 302 305 304 301 302 303 301 295 289 287 288 288 290 290 288 286 285 286 289 292 293 292 293 296 298 298 294 290 287 285 284 285 287
208 208 209 209 209 209 210 212 212 212 212 211 212 214 216 217 217 215 214 213 214 216 217 219 221 223 226 226 226 227 228 229 230 232 228 221 218 221 225 234 241 240 239 236 233 241 261 273 281 289 293 293 295 299 301 301 304 308 306 303 297 291 289 291 292 292 291 291 291 290 292 293 292 291 291 293 297 300 300 298 294 290 288 286 286
210 210 211 211 210 210 211 212 212 212 212 211 211 213 215 216 215 215 214 214 216 217 218 220 221 222 224 227 228 227 227 229 230 229 227 224 226 232 236 240 244 245 245 247 244 241 251 267 278 281 279 278 283 289 293 294 296 300 302 304 303 299 298 298 297 296 295 293 291 291 292 292 291 291 291 293 295 298 299 299 296 293 290 288 287
211 212 212 212 211 211 211 212 212 212 212 211 212 213 216 218 218 216 216 216 218 220 221 222 222 222 223 227 229 229 228 230 231 229 227 229 235 239 240 239 242 247 250 250 250 248 251 261 270 273 272 273 277 284 288 289 292 296 299 300 299 299 300 300 300 301 301 299 298 297 298 297 297 299 300 299 298 298 297 296 295 293 292 290 289
211 212 212 212 212 212 212 212 213 213 213 213 213 214 217 220 220 219 218 219 221 223 225 225 225 224 225 228 230 230 230 232 233 232 232 235 240 242 243 242 243 247 251 251 251 252 253 256 263 268 269 270 275 280 281 284 290 296 297 296 294 295 297 298 297 299 302 304 305 303 303 303 305 306 306 305 304 301 298 296 295 294 293 292 291
211 212 211 212 213 213 214 214 214 214 214 214 215 216 217 219 220 221 221 222 223 225 227 228 228 228 227 230 232 232 232 234 234 233 234 237 242 243 243 244 244 245 247 249 251 253 254 256 261 264 265 267 273 278 279 282 288 293 295 294 291 291 293 295 295 296 298 301 301 303 305 306 307 307 306 305 304 303 300 297 295 293 292 292 290
211 211 212 213 214 214 215 215 215 216 216 215 216 217 217 218 219 221 223 223 224 226 228 228 229 229 229 230 232 233 234 233 233 235 236 238 242 243 242 244 245 244 244 246 249 251 253 256 259 261 264 268 272 276 283 286 285 287 289 287 287 290 291 288 288 288 289 291 294 299 302 303 304 303 302 302 301 300 298 296 293 291 289 288 286
212 213 213 214 214 214 215 216 216 217 216 216 216 216 216 218 220 222 223 223 224 226 227 228 229 229 230 231 232 235 235 233 233 236 236 238 242 243 245 248 247 244 244 246 247 248 251 253 255 257 262 268 272 277 285 287 285 286 287 282 282 289 292 284 281 285 288 292 294 296 297 300 303 304 303 300 298 297 295 294 292 290 287 285 284
214 214 215 215 214 215 215 216 216 216 217 217 216 215 215 217 221 223 224 224 224 224 225 227 229 229 230 232 233 235 236 235 234 235 238 242 244 245 248 250 246 244 246 247 245 244 245 245 248 253 258 264 272 280 287 290 290 291 294 289 283 288 295 294 293 296 297 298 298 296 298 303 304 304 303 300 299 299 299 298 297 294 292 290 289
215 215 215 215 215 215 215 215 216 216 217 217 217 216 216 219 223 224 225 225 223 222 223 224 226 229 231 232 233 235 236 235 234 236 241 244 242 244 249 250 247 247 248 246 243 242 240 239 244 250 254 263 274 282 286 290 294 293 292 290 287 290 298 301 303 305 306 306 301 298 303 308 306 302 302 303 304 307 308 309 307 303 301 299 297
215 215 215 215 216 216 215 215 216 217 218 218 217 216 219 223 226 225 225 224 221 220 222 224 225 228 229 231 233 235 235 233 233 235 239 241 242 246 250 251 253 256 254 249 244 242 239 240 246 252 254 265 279 285 284 287 293 291 284 281 282 287 293 297 299 303 307 311 304 299 305 310 309 305 305 308 310 313 315 315 313 309 306 304 302
214 214 214 215 215 216 215 216 217 218 218 218 217 217 222 227 228 225 224 223 220 218 221 225 227 227 228 229 231 232 232 231 231 233 237 242 245 247 248 251 258 263 262 257 253 251 248 244 247 255 263 271 280 284 285 289 292 287 279 275 276 280 285 286 282 287 301 308 304 300 304 309 310 307 306 310 312 312 313 312 311 310 308 305 302
214 213 214 215 215 215 215 216 218 218 218 218 218 219 224 229 228 225 224 223 220 218 221 225 226 226 226 226 226 229 230 229 230 232 236 240 241 243 247 255 265 269 268 263 257 254 251 248 254 269 278 279 279 284 291 293 288 282 274 274 277 279 281 282 280 286 299 305 301 298 300 305 310 307 305 312 314 310 306 304 304 307 308 305 300
213 212 213 214 214 215 216 216 218 218 218 218 218 220 225 229 228 225 224 223 220 220 223 226 226 226 225 224 225 228 227 227 228 230 233 237 242 248 254 262 270 272 268 260 251 245 242 254 272 282 284 281 280 287 294 292 284 279 275 276 280 283 284 286 286 291 298 301 299 294 290 301 311 307 304 311 313 303 297 296 298 303 304 304 302
212 213 213 213 214 215 216 216 217 217 218 218 218 220 224 228 228 225 223 222 220 220 223 226 227 227 226 226 228 230 228 226 227 229 235 242 250 257 261 267 271 271 268 259 247 235 247 265 272 278 281 282 285 288 291 290 285 283 281 280 282 285 287 288 289 292 298 302 303 289 274 296 311 306 300 307 307 299 298 298 301 304 305 303 302
212 213 213 213 214 215 215 215 215 215 217 217 217 220 224 227 227 223 220 219 218 218 222 227 228 228 228 228 230 231 231 230 230 233 239 245 252 259 262 266 267 266 265 258 246 247 265 270 272 276 279 283 286 286 286 284 280 282 283 281 282 285 286 287 291 296 300 305 308 297 278 293 307 303 299 306 308 306 305 304 305 306 303 300 300
209 211 212 212 213 214 213 214 214 213 215 217 218 220 223 224 223 220 216 215 215 217 222 227 229 229 229 229 231 231 231 231 232 234 239 244 249 254 258 260 261 260 258 254 255 266 271 267 266 270 276 285 288 287 287 281 280 286 282 275 281 289 288 285 288 293 297 302 308 306 290 292 304 306 306 310 312 309 307 308 309 309 305 304 307
207 209 210 209 210 212 212 213 213 212 214 217 219 220 220 221 220 217 213 211 211 215 221 226 228 227 228 229 230 229 229 228 230 237 244 246 247 251 256 255 251 252 254 255 262 274 274 267 267 269 274 283 289 291 292 288 288 287 281 282 290 293 289 285 286 291 299 305 310 311 301 302 308 311 311 313 310 306 306 309 312 314 314 314 315
205 206 205 204 206 208 211 213 213 213 215 217 218 217 217 218 218 215 210 207 208 212 218 222 223 224 226 226 224 225 226 227 233 246 253 251 250 253 254 249 244 248 254 257 264 277 285 286 284 281 280 284 291 297 297 294 290 286 288 296 302 300 297 298 299 301 304 306 310 314 308 305 308 312 313 311 305 305 309 309 311 314 316 315 315